Voltar ao catálogo

FLOCK 4H 36

AtivoCiênciaSSO
NORAD 66739·PAYLOAD·🇺🇸 United States

Lançado Nov 28, 2025 de Vandenberg Space Force Base

Loading…

Próximas Passagens (próximas 24 horas)

TLE

AtualizadoSource: CelesTrak SupGP

Época: Sep 14, 2026, 12:45 UTC

1 66739C 25276CB  26257.53138889  .00010697  00000+0  47786-3 0  2574
2 66739  97.4175 330.0310 0002982  42.0993 251.8978 15.21408798    10

Acompanhe FLOCK 4H 36 em tempo real com AllMySat

Download on the App Store